Torna al catalogo

QIANFAN-220

AttivoComunicazioniPO
NORAD 69849·PAYLOAD·🇨🇳 China

Lanciato Jul 5, 2026 da Wenchang Space Launch Site

Loading…

Prossimi Passaggi (prossime 24 ore)

TLE

AggiornatoSource: Space-Track

Epoca: Sep 14, 2026, 20:48 UTC

1 69849U 26155B   26257.86723246 -.01901430  00000-0 -29602+1 0  9994
2 69849  89.0080  54.2958 0036017  33.4890 326.8530 13.54952052  9967

Traccia QIANFAN-220 in tempo reale con AllMySat

Download on the App Store